TimeCST,TemperatureF,Dew PointF,Humidity,Sea Level PressureIn,VisibilityMPH,Wind Direction,Wind SpeedMPH,Gust SpeedMPH,PrecipitationIn,Events,Conditions,WindDirDegrees,DateUTC
12:15 AM,32.0,26.6,80,29.56,10.0,NNW,8.1,-,N/A,,Clear,330,2013-12-03 06:15:00
12:35 AM,33.8,28.4,81,29.56,10.0,NNW,10.4,-,N/A,,Clear,330,2013-12-03 06:35:00
12:55 AM,33.8,28.4,81,29.56,10.0,NNW,10.4,-,N/A,,Clear,340,2013-12-03 06:55:00
1:15 AM,33.8,28.4,81,29.56,10.0,North,9.2,-,N/A,,Clear,350,2013-12-03 07:15:00
1:35 AM,30.2,28.4,93,29.56,10.0,NNW,8.1,-,N/A,,Clear,330,2013-12-03 07:35:00
1:55 AM,28.4,26.6,93,29.57,8.0,NW,9.2,-,N/A,,Clear,310,2013-12-03 07:55:00
2:15 AM,30.2,26.6,86,29.58,7.0,NNW,9.2,-,N/A,,Clear,330,2013-12-03 08:15:00
2:35 AM,28.4,26.6,93,29.58,5.0,NNW,6.9,-,N/A,,Clear,330,2013-12-03 08:35:00
2:55 AM,28.4,26.6,93,29.59,5.0,NW,9.2,-,N/A,,Clear,320,2013-12-03 08:55:00
3:15 AM,28.4,26.6,93,29.60,5.0,NNW,11.5,-,N/A,,Mostly Cloudy,330,2013-12-03 09:15:00
3:35 AM,28.4,26.6,93,29.61,4.0,NNW,10.4,-,N/A,,Mostly Cloudy,330,2013-12-03 09:35:00
3:55 AM,28.4,28.4,100,29.61,3.0,NNW,11.5,-,N/A,,Partly Cloudy,330,2013-12-03 09:55:00
4:15 AM,30.2,28.4,93,29.61,3.0,NNW,13.8,-,N/A,,Mostly Cloudy,340,2013-12-03 10:15:00
4:35 AM,28.4,26.6,93,29.61,4.0,North,9.2,-,N/A,,Overcast,360,2013-12-03 10:35:00
4:55 AM,28.4,26.6,93,29.60,4.0,North,8.1,-,N/A,,Overcast,360,2013-12-03 10:55:00
5:15 AM,28.4,26.6,93,29.60,3.0,NNW,6.9,-,N/A,,Overcast,340,2013-12-03 11:15:00
5:35 AM,28.4,26.6,93,29.59,3.0,North,8.1,-,N/A,,Overcast,350,2013-12-03 11:35:00
5:55 AM,28.4,28.4,100,29.59,3.0,North,6.9,-,N/A,,Overcast,360,2013-12-03 11:55:00
6:15 AM,30.2,28.4,93,29.59,3.0,NW,4.6,-,N/A,,Overcast,320,2013-12-03 12:15:00
6:35 AM,30.2,28.4,93,29.61,2.5,NW,5.8,-,N/A,,Overcast,320,2013-12-03 12:35:00
6:55 AM,30.2,28.4,93,29.60,2.5,NNW,5.8,-,N/A,,Overcast,330,2013-12-03 12:55:00
7:15 AM,30.2,30.2,100,29.62,3.0,NW,5.8,-,N/A,,Overcast,320,2013-12-03 13:15:00
7:35 AM,30.2,28.4,93,29.62,3.0,NW,4.6,-,N/A,,Overcast,310,2013-12-03 13:35:00
7:55 AM,30.2,28.4,93,29.63,2.0,WNW,5.8,-,N/A,,Overcast,290,2013-12-03 13:55:00
8:15 AM,30.2,28.4,93,29.63,2.0,NW,5.8,-,N/A,,Overcast,320,2013-12-03 14:15:00
8:35 AM,32.0,30.2,93,29.63,2.5,NW,5.8,-,N/A,,Overcast,320,2013-12-03 14:35:00
8:55 AM,32.0,30.2,93,29.64,3.0,NNW,5.8,-,N/A,,Overcast,330,2013-12-03 14:55:00
9:15 AM,32.0,30.2,93,29.66,3.0,NW,9.2,-,N/A,,Overcast,320,2013-12-03 15:15:00
9:35 AM,32.0,30.2,93,29.66,4.0,NNW,9.2,-,N/A,,Overcast,330,2013-12-03 15:35:00
9:55 AM,32.0,28.4,87,29.67,4.0,NNW,10.4,-,N/A,,Overcast,330,2013-12-03 15:55:00
10:15 AM,32.0,28.4,87,29.68,4.0,NW,11.5,-,N/A,,Overcast,320,2013-12-03 16:15:00
10:35 AM,30.2,28.4,93,29.68,4.0,NW,9.2,-,N/A,,Overcast,320,2013-12-03 16:35:00
10:55 AM,32.0,28.4,87,29.68,5.0,NNW,9.2,-,N/A,,Overcast,330,2013-12-03 16:55:00
11:15 AM,32.0,28.4,87,29.67,5.0,NNW,10.4,-,N/A,,Overcast,330,2013-12-03 17:15:00
11:35 AM,33.8,28.4,81,29.66,5.0,NNW,9.2,-,N/A,,Overcast,330,2013-12-03 17:35:00
11:55 AM,33.8,28.4,81,29.67,6.0,NW,9.2,-,N/A,,Overcast,320,2013-12-03 17:55:00
12:15 PM,33.8,28.4,81,29.67,6.0,NW,12.7,-,N/A,,Overcast,320,2013-12-03 18:15:00
12:35 PM,33.8,28.4,81,29.67,7.0,NW,12.7,-,N/A,,Overcast,320,2013-12-03 18:35:00
12:55 PM,33.8,28.4,81,29.66,8.0,NW,16.1,-,N/A,,Overcast,320,2013-12-03 18:55:00
1:15 PM,33.8,28.4,81,29.66,8.0,NNW,12.7,-,N/A,,Overcast,330,2013-12-03 19:15:00
1:35 PM,33.8,28.4,81,29.65,9.0,NNW,13.8,18.4,N/A,,Overcast,330,2013-12-03 19:35:00
1:55 PM,33.8,28.4,81,29.66,10.0,NW,13.8,-,N/A,,Overcast,320,2013-12-03 19:55:00
2:15 PM,33.8,28.4,81,29.68,10.0,NW,15.0,19.6,N/A,,Overcast,320,2013-12-03 20:15:00
2:35 PM,33.8,28.4,81,29.67,10.0,NW,16.1,-,N/A,,Overcast,320,2013-12-03 20:35:00
2:55 PM,32.0,28.4,87,29.68,9.0,NW,11.5,-,N/A,,Overcast,310,2013-12-03 20:55:00
3:15 PM,32.0,28.4,87,29.69,10.0,NW,15.0,-,N/A,,Overcast,320,2013-12-03 21:15:00
3:35 PM,32.0,28.4,87,29.69,9.0,NW,16.1,19.6,N/A,,Overcast,320,2013-12-03 21:35:00
3:55 PM,30.2,26.6,86,29.69,10.0,NW,13.8,-,N/A,,Overcast,310,2013-12-03 21:55:00
4:15 PM,30.2,26.6,86,29.70,10.0,NW,13.8,17.3,N/A,,Overcast,320,2013-12-03 22:15:00
4:35 PM,30.2,26.6,86,29.71,9.0,NW,15.0,19.6,N/A,,Overcast,320,2013-12-03 22:35:00
4:55 PM,30.2,24.8,80,29.72,10.0,NW,17.3,-,N/A,,Overcast,320,2013-12-03 22:55:00
5:15 PM,28.4,24.8,86,29.73,6.0,NW,20.7,26.5,N/A,,Overcast,320,2013-12-03 23:15:00
5:35 PM,28.4,24.8,86,29.75,2.0,NW,17.3,23.0,N/A,,Overcast,320,2013-12-03 23:35:00
5:55 PM,26.6,24.8,93,29.75,2.0,NW,15.0,19.6,N/A,,Overcast,320,2013-12-03 23:55:00
6:15 PM,26.6,24.8,93,29.75,2.0,NNW,13.8,19.6,N/A,,Scattered Clouds,330,2013-12-04 00:15:00
6:35 PM,26.6,24.8,93,29.73,3.0,NNW,12.7,-,N/A,,Clear,330,2013-12-04 00:35:00
6:55 PM,26.6,24.8,93,29.72,3.0,NNW,10.4,-,N/A,,Clear,340,2013-12-04 00:55:00
7:15 PM,26.6,24.8,93,29.72,4.0,NW,10.4,-,N/A,,Clear,320,2013-12-04 01:15:00
7:55 PM,26.6,24.8,93,29.73,4.0,NW,11.5,-,N/A,,Clear,320,2013-12-04 01:55:00
8:15 PM,26.6,24.8,93,29.75,4.0,NW,13.8,17.3,N/A,,Mostly Cloudy,310,2013-12-04 02:15:00
8:35 PM,24.8,23.0,93,29.75,3.0,NW,16.1,-,N/A,,Overcast,320,2013-12-04 02:35:00
8:55 PM,24.8,21.2,86,29.74,4.0,NNW,16.1,-,N/A,,Overcast,330,2013-12-04 02:55:00
9:15 PM,24.8,21.2,86,29.74,5.0,NW,17.3,20.7,N/A,,Mostly Cloudy,320,2013-12-04 03:15:00
9:35 PM,24.8,21.2,86,29.73,10.0,NNW,16.1,-,N/A,,Clear,330,2013-12-04 03:35:00
9:55 PM,24.8,19.4,80,29.73,8.0,NNW,18.4,-,N/A,,Partly Cloudy,330,2013-12-04 03:55:00
10:15 PM,23.0,19.4,86,29.74,7.0,NNW,18.4,24.2,N/A,,Clear,330,2013-12-04 04:15:00
10:35 PM,23.0,19.4,86,29.73,10.0,NW,16.1,-,N/A,,Scattered Clouds,320,2013-12-04 04:35:00
10:55 PM,23.0,19.4,86,29.74,10.0,NW,15.0,-,N/A,,Overcast,320,2013-12-04 04:55:00
11:15 PM,23.0,19.4,86,29.76,10.0,WNW,18.4,-,N/A,,Overcast,300,2013-12-04 05:15:00
11:35 PM,21.2,19.4,93,29.76,10.0,NW,17.3,-,N/A,,Overcast,310,2013-12-04 05:35:00
11:55 PM,21.2,17.6,86,29.77,10.0,NW,18.4,-,N/A,,Overcast,310,2013-12-04 05:55:00